Wind_Speed
52 50 49 48 45 45 46 45 44 42 41 40 37 35 36 37 37 38 37 36 37 38 39 40 40 41 42
57 57 56 55 54 52 51 51 51 50 50 49 48 47 44 42 41 41 42 43 43 44 44 44 44 45 45
61 61 61 62 61 59 59 58 57 56 56 57 56 56 55 53 50 48 48 48 47 47 46 46 47 48 48
64 64 63 62 64 65 65 64 65 64 63 61 61 62 63 62 61 59 57 55 54 54 53 51 49 49 48
67 66 64 63 62 65 66 68 67 68 69 68 66 66 66 67 67 66 66 64 63 61 59 58 57 56 54
70 69 67 67 65 64 66 68 68 69 70 71 70 69 69 69 70 71 71 70 69 68 67 65 64 63 62
73 72 72 71 71 69 69 68 69 69 69 71 71 70 71 69 70 71 71 72 73 72 72 72 71 71 70
79 77 77 76 76 75 74 75 73 71 72 73 73 72 72 71 70 69 69 70 72 73 73 73 74 75 74
85 83 82 82 82 81 80 80 79 78 77 75 75 76 77 76 76 74 73 72 72 71 72 73 74 75 76
89 87 86 85 84 85 85 85 85 84 82 81 82 80 79 80 80 80 79 79 77 77 76 75 74 74 73
82 80 78 77 77 76 77 79 81 82 82 82 80 81 81 77 75 75 75 78 78 78 78 78 77 76 76
79 76 74 73 72 71 71 71 73 73 72 71 70 69 69 71 73 70 69 69 70 70 69 70 71 72 76
79 77 75 72 69 67 67 66 71 65 65 69 61 61 67 67 67 68 68 67 67 66 66 65 65 65 64
67 67 67 66 66 63 64 67 68 67 67 61 61 65 66 66 65 65 66 66 67 67 68 69 67 67 67
55 55 58 60 59 60 63 70 70 69 67 62 62 64 65 65 64 64 68 69 69 68 72 73 71 71 71
53 53 52 54 64 64 63 62 61 63 66 63 67 69 66 64 66 67 66 68 68 66 70 71 68 70 74
43 43 47 49 52 58 63 65 63 63 65 67 68 64 63 62 66 69 69 69 68 66 68 71 73 74 78
Wind_Direction
277 275 273 272 270 268 265 262 260 260 261 263 261 256 252 250 251 252 252 250 248 247 249 250 251 252 251
273 272 272 269 267 266 265 264 261 257 256 257 259 259 256 253 251 252 252 250 249 250 250 249 249 249 251
274 271 269 269 267 265 264 263 263 262 259 256 256 256 257 257 254 250 249 251 251 251 251 251 250 252 252
273 272 269 266 266 265 264 262 262 261 261 260 258 256 256 256 256 255 254 250 248 248 249 251 252 253 253
271 270 269 268 266 264 263 261 260 260 260 260 259 258 256 256 256 256 255 255 254 253 252 250 249 250 251
268 268 268 267 264 263 263 262 261 260 259 258 258 259 259 258 256 255 255 255 254 254 253 253 252 252 252
267 266 266 266 264 263 263 261 261 260 261 260 258 258 258 258 257 256 255 254 254 254 253 253 252 251 251
267 265 264 263 263 262 262 262 261 261 259 259 260 259 259 259 258 258 257 256 255 254 253 253 252 252 252
265 263 263 262 261 260 260 259 259 259 259 258 259 260 260 260 261 261 260 258 257 255 255 255 255 254 252
266 265 264 262 263 262 260 259 258 257 257 258 258 258 258 259 261 261 261 261 261 260 259 258 256 255 255
268 267 267 266 265 265 263 262 261 261 260 260 261 261 261 262 262 263 263 264 264 264 263 262 261 260 258
270 268 268 267 267 265 264 265 264 263 262 263 264 263 262 262 263 262 263 263 264 264 265 265 265 264 263
269 269 268 267 264 260 259 256 259 262 259 259 261 260 260 260 259 261 261 262 261 261 261 261 261 261 260
268 267 266 263 260 260 255 251 253 255 253 256 258 260 260 260 257 259 261 259 260 261 262 261 260 259 258
266 262 258 253 254 253 253 254 250 250 250 249 254 257 257 259 259 259 262 260 259 259 260 258 258 260 260
266 264 259 255 251 252 252 252 253 253 254 255 254 255 255 256 258 257 259 260 260 260 263 264 261 262 263
274 265 259 257 254 252 252 256 255 255 258 258 260 259 260 260 259 261 262 262 260 265 268 269 267 266 267
Height
5647 5648 5648 5648 5648 5648 5648 5650 5651 5651 5651 5650 5650 5651 5654 5656 5658 5660 5662 5664 5667 5671 5675 5678 5680 5683 5687
5632 5632 5633 5633 5635 5635 5634 5634 5637 5639 5640 5641 5641 5642 5643 5644 5646 5648 5650 5654 5656 5659 5662 5665 5667 5671 5674
5616 5615 5616 5615 5617 5619 5620 5620 5620 5622 5625 5627 5628 5629 5630 5632 5634 5636 5639 5642 5644 5646 5649 5652 5655 5658 5661
5595 5595 5595 5595 5597 5598 5600 5603 5604 5605 5605 5609 5612 5614 5616 5618 5621 5623 5625 5627 5630 5632 5635 5637 5640 5643 5647
5574 5575 5575 5575 5577 5577 5579 5579 5583 5585 5586 5588 5591 5595 5597 5598 5600 5603 5606 5609 5613 5616 5619 5622 5625 5628 5631
5553 5554 5555 5555 5554 5556 5557 5558 5561 5563 5564 5566 5568 5571 5574 5578 5580 5582 5585 5588 5591 5595 5599 5603 5607 5611 5615
5531 5532 5531 5531 5533 5535 5535 5536 5537 5540 5542 5545 5547 5548 5551 5554 5556 5561 5564 5567 5570 5574 5578 5582 5587 5591 5595
5503 5506 5506 5506 5508 5511 5512 5513 5515 5518 5519 5523 5523 5526 5528 5530 5533 5537 5541 5545 5548 5552 5556 5560 5564 5569 5573
5475 5478 5480 5480 5481 5484 5488 5487 5491 5493 5496 5501 5501 5503 5505 5508 5509 5512 5515 5520 5525 5530 5533 5537 5541 5545 5549
5445 5447 5449 5453 5453 5455 5459 5461 5464 5466 5472 5475 5476 5479 5483 5485 5485 5486 5491 5494 5499 5503 5509 5513 5517 5523 5528
5414 5418 5421 5423 5426 5427 5430 5433 5437 5442 5446 5449 5451 5455 5459 5463 5465 5468 5469 5470 5473 5477 5481 5485 5490 5496 5503
5387 5391 5394 5398 5400 5402 5405 5408 5412 5419 5419 5425 5429 5432 5434 5437 5444 5448 5449 5451 5454 5456 5458 5460 5463 5468 5475
5361 5364 5368 5372 5374 5377 5381 5386 5390 5395 5399 5403 5409 5410 5412 5418 5421 5425 5428 5431 5434 5436 5438 5441 5445 5448 5452
5337 5339 5342 5347 5350 5354 5359 5364 5369 5375 5379 5382 5385 5388 5392 5396 5399 5406 5408 5411 5410 5412 5415 5419 5424 5428 5432
5315 5317 5320 5325 5329 5333 5338 5341 5347 5353 5357 5361 5363 5367 5372 5376 5380 5384 5387 5390 5390 5389 5389 5396 5403 5406 5408
5295 5298 5302 5305 5309 5313 5316 5322 5328 5331 5336 5341 5343 5346 5351 5358 5361 5364 5366 5368 5367 5368 5372 5376 5383 5380 5381
5278 5281 5283 5286 5289 5293 5297 5302 5307 5312 5317 5320 5324 5328 5331 5339 5340 5341 5346 5348 5348 5350 5350 5351 5358 5362 5357